timestamp,surface_pressure_avg,surface_temp_avg,battery_voltage,lat,long
2017-10-15 00:00:00+00:00,232.3065,11.59,12.89,47.84626,-54.09684
2017-10-15 00:10:00+00:00,232.2664,11.58,12.81,47.84626,-54.09684
2017-10-15 00:20:00+00:00,232.9148,11.58,12.89,47.84626,-54.09684
2017-10-15 00:30:00+00:00,230.6298,11.59,12.89,47.84626,-54.09684
2017-10-15 00:40:00+00:00,228.8231,11.59,12.89,47.84626,-54.09684
2017-10-15 00:50:00+00:00,225.5798,11.59,12.89,47.84626,-54.09684
2017-10-15 01:00:00+00:00,222.3464,11.59,12.89,47.84626,-54.09684
2017-10-15 01:10:00+00:00,219.1647,11.58,12.81,47.84626,-54.09684
2017-10-15 01:20:00+00:00,218.8431,11.58,12.89,47.84626,-54.09684
2017-10-15 01:30:00+00:00,217.6815,11.58,12.89,47.84626,-54.09684
2017-10-15 01:40:00+00:00,213.2215,11.58,12.89,47.84626,-54.09684
2017-10-15 01:50:00+00:00,211.9998,11.58,12.89,47.84626,-54.09684
2017-10-15 02:00:00+00:00,216.2681,11.58,12.81,47.84626,-54.09684
2017-10-15 02:10:00+00:00,217.8981,11.59,12.81,47.84626,-54.09684
2017-10-15 02:20:00+00:00,215.0048,11.59,12.89,47.84626,-54.09684
2017-10-15 02:30:00+00:00,214.2481,11.59,12.89,47.84626,-54.09684
2017-10-15 02:40:00+00:00,217.2398,11.59,12.89,47.84626,-54.09684
2017-10-15 02:50:00+00:00,218.9531,11.59,12.89,47.84626,-54.09684
2017-10-15 03:00:00+00:00,217.1931,11.59,12.89,47.84626,-54.09684
2017-10-15 03:10:00+00:00,218.1314,11.59,12.81,47.84626,-54.09684
2017-10-15 03:20:00+00:00,222.1831,11.59,12.89,47.84626,-54.09684
2017-10-15 03:30:00+00:00,224.2948,11.6,12.89,47.84626,-54.09684
2017-10-15 03:40:00+00:00,226.1048,11.6,12.89,47.84626,-54.09684
2017-10-15 03:50:00+00:00,229.2697,11.6,12.89,47.84626,-54.09684
2017-10-15 04:00:00+00:00,233.0514,11.6,12.89,47.84626,-54.09684
2017-10-15 04:10:00+00:00,236.7464,11.6,12.81,47.84626,-54.09684
2017-10-15 04:20:00+00:00,242.8048,11.6,12.89,47.84626,-54.09684
2017-10-15 04:30:00+00:00,250.2797,11.6,12.89,47.84626,-54.09684
2017-10-15 04:40:00+00:00,259.0048,11.6,12.89,47.84626,-54.09684
2017-10-15 04:50:00+00:00,264.3797,11.6,12.89,47.84626,-54.09684
2017-10-15 05:00:00+00:00,267.7114,11.6,12.89,47.84626,-54.09684
2017-10-15 05:10:00+00:00,274.7164,11.6,12.81,47.84626,-54.09684
2017-10-15 05:20:00+00:00,286.4664,11.6,12.89,47.84626,-54.09684
2017-10-15 05:30:00+00:00,295.5496,11.6,12.89,47.84626,-54.09684
2017-10-15 05:40:00+00:00,297.0397,11.6,12.89,47.84626,-54.09684
2017-10-15 05:50:00+00:00,300.8597,11.6,12.89,47.84626,-54.09684
2017-10-15 06:00:00+00:00,307.4614,11.6,12.81,47.84626,-54.09684
2017-10-15 06:10:00+00:00,308.358,11.6,12.81,47.84626,-54.09684
2017-10-15 06:20:00+00:00,310.523,11.6,12.89,47.84626,-54.09684
2017-10-15 06:30:00+00:00,318.0613,11.6,12.89,47.84626,-54.09684
2017-10-15 06:40:00+00:00,324.9963,11.6,12.89,47.84626,-54.09684
2017-10-15 06:50:00+00:00,324.348,11.6,12.89,47.84626,-54.09684
2017-10-15 07:00:00+00:00,328.2463,11.59,12.81,47.84626,-54.09684
2017-10-15 07:10:00+00:00,336.8313,11.59,12.81,47.84626,-54.09684
2017-10-15 07:20:00+00:00,333.0413,11.59,12.89,47.84626,-54.09684
2017-10-15 07:30:00+00:00,326.5729,11.59,12.89,47.84626,-54.09684
2017-10-15 07:40:00+00:00,328.3746,11.56,12.89,47.84626,-54.09684
2017-10-15 07:50:00+00:00,333.238,11.58,12.89,47.84626,-54.09684
2017-10-15 08:00:00+00:00,332.5813,11.58,12.81,47.84626,-54.09684
2017-10-15 08:10:00+00:00,332.7663,11.55,12.81,47.84626,-54.09684
2017-10-15 08:20:00+00:00,336.9296,11.55,12.89,47.84626,-54.09684
2017-10-15 08:30:00+00:00,335.6429,11.56,12.89,47.84626,-54.09684
2017-10-15 08:40:00+00:00,334.5114,11.55,12.89,47.84626,-54.09684
2017-10-15 08:50:00+00:00,335.173,11.52,12.89,47.84626,-54.09684
2017-10-15 09:00:00+00:00,332.1964,11.55,12.81,47.84626,-54.09684
2017-10-15 09:10:00+00:00,321.403,11.51,12.81,47.84626,-54.09684
2017-10-15 09:20:00+00:00,322.2713,11.5,12.89,47.84626,-54.09684
2017-10-15 09:30:00+00:00,324.0079,11.5,12.89,47.84626,-54.09684
2017-10-15 09:40:00+00:00,313.3147,11.5,12.89,47.84626,-54.09684
2017-10-15 09:50:00+00:00,302.453,11.5,12.89,47.84626,-54.09684
2017-10-15 10:00:00+00:00,300.8713,11.5,12.81,47.84626,-54.09684
2017-10-15 10:10:00+00:00,292.7614,11.5,12.81,47.84626,-54.09684
2017-10-15 10:20:00+00:00,280.6797,11.5,13.05,47.84626,-54.09684
2017-10-15 10:30:00+00:00,278.5747,11.5,13.29,47.84626,-54.09684
2017-10-15 10:40:00+00:00,279.7547,11.5,13.6,47.84626,-54.09684
2017-10-15 10:50:00+00:00,267.4564,11.5,13.92,47.84626,-54.09684
2017-10-15 11:00:00+00:00,258.6931,11.5,14.08,47.84626,-54.09684
2017-10-15 11:10:00+00:00,263.3864,11.5,13.68,47.84626,-54.09684
2017-10-15 11:20:00+00:00,261.0864,11.5,13.44,47.84626,-54.09684
2017-10-15 11:30:00+00:00,245.0331,11.5,13.6,47.84626,-54.09684
2017-10-15 11:40:00+00:00,240.5614,11.49,13.6,47.84626,-54.09684
2017-10-15 11:50:00+00:00,248.7531,11.5,13.53,47.84626,-54.09684
2017-10-15 12:00:00+00:00,248.3064,11.5,14.08,47.84626,-54.09684
2017-10-15 12:10:00+00:00,241.3248,11.49,13.68,47.84626,-54.09684
2017-10-15 12:20:00+00:00,241.5931,11.49,13.6,47.84626,-54.09684
2017-10-15 12:30:00+00:00,245.2631,11.5,13.68,47.84626,-54.09684
2017-10-15 12:40:00+00:00,244.5331,11.5,13.44,47.84626,-54.09684
2017-10-15 12:50:00+00:00,244.1214,11.5,13.6,47.84626,-54.09684
2017-10-15 13:00:00+00:00,244.9597,11.5,13.53,47.84626,-54.09684
2017-10-15 13:10:00+00:00,239.8264,11.49,13.6,47.84626,-54.09684
2017-10-15 13:20:00+00:00,237.2831,11.5,13.44,47.84626,-54.09684
2017-10-15 13:30:00+00:00,235.8798,11.5,13.44,47.84626,-54.09684
2017-10-15 13:40:00+00:00,228.5931,11.5,13.53,47.84626,-54.09684
2017-10-15 13:50:00+00:00,224.8748,11.5,13.53,47.84626,-54.09684
2017-10-15 14:00:00+00:00,230.0948,11.5,13.6,47.84626,-54.09684
2017-10-15 14:10:00+00:00,232.1314,11.5,13.6,47.84626,-54.09684
2017-10-15 14:20:00+00:00,228.7914,11.51,13.76,47.84626,-54.09684
2017-10-15 14:30:00+00:00,226.2281,11.59,13.76,47.84626,-54.09684
2017-10-15 14:40:00+00:00,230.0881,11.58,13.84,47.84626,-54.09684
2017-10-15 14:50:00+00:00,233.2398,11.54,13.76,47.84626,-54.09684
2017-10-15 15:00:00+00:00,228.3181,11.59,13.84,47.84626,-54.09684
2017-10-15 15:10:00+00:00,228.5798,11.6,13.76,47.84626,-54.09684
2017-10-15 15:20:00+00:00,235.5114,11.6,13.76,47.84626,-54.09684
2017-10-15 15:30:00+00:00,240.8747,11.6,13.76,47.84626,-54.09684
2017-10-15 15:40:00+00:00,240.1615,11.6,13.68,47.84626,-54.09684
2017-10-15 15:50:00+00:00,243.518,11.6,13.68,47.84626,-54.09684
2017-10-15 16:00:00+00:00,250.9698,11.6,13.53,47.84626,-54.09684
2017-10-15 16:10:00+00:00,258.3481,11.6,13.37,47.84626,-54.09684
2017-10-15 16:20:00+00:00,259.6581,11.6,13.44,47.84626,-54.09684
2017-10-15 16:30:00+00:00,260.5031,11.6,13.44,47.84626,-54.09684
2017-10-15 16:40:00+00:00,263.2247,11.6,13.53,47.84626,-54.09684
2017-10-15 16:50:00+00:00,273.8164,11.6,13.53,47.84626,-54.09684
2017-10-15 17:00:00+00:00,276.298,11.6,13.44,47.84626,-54.09684
2017-10-15 17:10:00+00:00,272.0914,11.6,13.29,47.84626,-54.09684
2017-10-15 17:20:00+00:00,279.6664,11.6,13.44,47.84626,-54.09684
2017-10-15 17:30:00+00:00,294.5663,11.6,13.44,47.84626,-54.09684
2017-10-15 17:40:00+00:00,295.2247,11.6,13.44,47.84626,-54.09684
2017-10-15 17:50:00+00:00,294.7714,11.6,13.44,47.84626,-54.09684
2017-10-15 18:00:00+00:00,306.0214,11.6,13.44,47.84626,-54.09684
2017-10-15 18:10:00+00:00,315.308,11.6,13.29,47.84626,-54.09684
2017-10-15 18:20:00+00:00,316.928,11.6,13.37,47.84626,-54.09684
2017-10-15 18:30:00+00:00,323.9763,11.6,13.37,47.84626,-54.09684
2017-10-15 18:40:00+00:00,337.4529,11.6,13.37,47.84626,-54.09684
2017-10-15 18:50:00+00:00,345.3863,11.6,13.37,47.84626,-54.09684
2017-10-15 19:00:00+00:00,339.708,11.6,13.29,47.84626,-54.09684
2017-10-15 19:10:00+00:00,343.9946,11.6,13.21,47.84626,-54.09684
2017-10-15 19:20:00+00:00,355.2963,11.6,13.21,47.84626,-54.09684
2017-10-15 19:30:00+00:00,358.8813,11.6,13.21,47.84626,-54.09684
2017-10-15 19:40:00+00:00,354.8279,11.6,13.21,47.84626,-54.09684
2017-10-15 19:50:00+00:00,359.8097,11.6,13.21,47.84626,-54.09684
2017-10-15 20:00:00+00:00,366.878,11.6,13.13,47.84626,-54.09684
2017-10-15 20:10:00+00:00,360.1646,11.6,13.05,47.84626,-54.09684
2017-10-15 20:20:00+00:00,361.4496,11.6,13.13,47.84626,-54.09684
2017-10-15 20:30:00+00:00,371.1613,11.6,13.13,47.84626,-54.09684
2017-10-15 20:40:00+00:00,374.7662,11.6,13.13,47.84626,-54.09684
2017-10-15 20:50:00+00:00,372.5246,11.6,13.13,47.84626,-54.09684
2017-10-15 21:00:00+00:00,370.9647,11.6,13.05,47.84626,-54.09684
2017-10-15 21:10:00+00:00,373.4495,11.6,12.97,47.84626,-54.09684
2017-10-15 21:20:00+00:00,374.5363,11.6,13.05,47.84626,-54.09684
2017-10-15 21:30:00+00:00,375.7745,11.6,13.05,47.84626,-54.09684
2017-10-15 21:40:00+00:00,369.4879,11.6,13.05,47.84626,-54.09684
2017-10-15 21:50:00+00:00,364.3797,11.6,13.05,47.84626,-54.09684
2017-10-15 22:00:00+00:00,362.0413,11.6,13.05,47.84626,-54.09684
2017-10-15 22:10:00+00:00,352.3363,11.6,12.97,47.84626,-54.09684
2017-10-15 22:20:00+00:00,344.283,11.6,13.05,47.84626,-54.09684
2017-10-15 22:30:00+00:00,344.663,11.6,13.05,47.84626,-54.09684
2017-10-15 22:40:00+00:00,346.2047,11.6,13.05,47.84626,-54.09684
2017-10-15 22:50:00+00:00,333.1663,11.59,13.05,47.84626,-54.09684
2017-10-15 23:00:00+00:00,313.7363,11.59,13.05,47.84626,-54.09684
2017-10-15 23:10:00+00:00,312.0314,11.6,12.97,47.84626,-54.09684
2017-10-15 23:20:00+00:00,307.5113,11.59,13.05,47.84626,-54.09684
2017-10-15 23:30:00+00:00,294.5247,11.58,13.05,47.84626,-54.09684
2017-10-15 23:40:00+00:00,288.2614,11.59,13.05,47.84626,-54.09684
2017-10-15 23:50:00+00:00,285.368,11.6,13.05,47.84626,-54.09684
